Regional Weather Roundup
Issued by NWS Kansas City/Pleasant Hill, MO

Home | Current Version | Previous Version | Graphics & Text | Print | Product List | Glossary Off
Versions: 1 2 3 4 5 6 7 8 9 10 11 12 13 14 15 16 17 18 19 20 21 22 23 24 25 26 27 28 29 30 31 32 33 34 35 36 37 38 39 40 41 42 43 44 45 46 47 48 49 50

000
ASUS43 KEAX 271610
RWREAX

WEATHER ROUNDUP FOR EASTERN KANSAS AND NORTHWEST MISSOURI
NATIONAL WEATHER SERVICE KANSAS CITY/PLEASANT HILL MO
1100 AM CDT THU AUG 27 2015

KSZ040-057-103>105-MOZ028-029-037-043-271700-
...KANSAS CITY METROPOLITAN AREA...

CITY           SKY/WX    TMP DP  RH WIND       PRES   REMARKS
K.C. INTL      CLOUDY    72  63  73 S13       30.08F
K.C. DOWNTOWN  CLOUDY    70  65  84 CALM      30.08F
LEES SUMMIT    TSTM      64  61  90 SE9       30.12R FOG
OLATHE - IXD   CLOUDY    71  66  84 SE9       30.09S
OLATHE - OJC   CLOUDY    67  66  97 SE12      30.08S
LAWRENCE       CLOUDY    75  66  73 SE13      30.07S

$$

MOZ001>008-011>017-020>025-030>033-038>040-044>046-053-054-271700-
...NORTHERN AND CENTRAL MISSOURI...

CITY           SKY/WX    TMP DP  RH WIND       PRES   REMARKS
ST. JOSEPH     CLOUDY    71  62  73 SE8       30.09R
MOSBY          RAIN      68  61  77 SE7       30.10F
WARRENSBURG    CLOUDY    66  55  68 S5        30.14S
WHITEMAN AFB   PTSUNNY   71  58  63 S12       30.14R
CLINTON          N/A     66  61  82 CALM      30.17R HAZE
SEDALIA        PTSUNNY   76  59  55 SW9       30.18R
WARSAW         NOT AVBL
CHILLICOTHE      N/A     74  60  61 SE9       30.15R
KIRKSVILLE     MOSUNNY   72  59  63 S13       30.19R

$$

MOZ041-047>049-056>058-063>065-088>090-097-271700-
...EASTERN AND SOUTHERN MISSOURI...

CITY           SKY/WX    TMP DP  RH WIND       PRES   REMARKS
ST. LOUIS INTL PTSUNNY   73  55  53 CALM      30.17S
SPIRIT OF STL  PTSUNNY   72  59  63 CALM      30.15S
COLUMBIA       MOSUNNY   72  60  66 S12       30.18R
JEFFERSON CITY SUNNY     72  58  61 SE5       30.18R
ROLLA          SUNNY     74  58  57 SW8       30.19R
OSAGE BEACH    MOSUNNY   73  57  56 SE7       30.18S
SPRINGFIELD    CLOUDY    69  57  65 SE13      30.16S
BRANSON        CLOUDY    72  59  64 SE5       30.19R
JOPLIN         CLOUDY    67  63  87 CALM      30.15R
WEST PLAINS    SUNNY     72  57  59 VRB7      30.20S

$$

IAZ060-094-KSZ022-034>040-054-083-096-NEZ052-066-093-271700-
...KANSAS...SOUTHEAST NEBRASKA AND IOWA...

CITY           SKY/WX    TMP DP  RH WIND       PRES   REMARKS
TOPEKA         PTSUNNY   74  66  76 SE17G23   30.06F
MANHATTAN      SUNNY     80  66  62 S18G25    30.02R
EMPORIA        MOSUNNY   77  64  64 S18G26    30.07S
CHANUTE        CLOUDY    68  65  90 S8        30.12F
WICHITA        PTSUNNY   80  66  62 SE18      30.05R
OMAHA          CLOUDY    70  61  73 SE10      30.06R
LINCOLN        CLOUDY    75  64  68 SE14      30.02R
FALLS CITY     CLOUDY    71  62  73 E12       30.06S
LAMONI         CLOUDY    67  58  72 W3        30.20R
DES MOINES     CLOUDY    67  57  70 SW6       30.19R

$$



USA.gov is the U.S. government's official web portal to all federal, state and local government web resources and services.